Meteo Giornale » Osservazioni meteo Italia » Genova-Sestri

ore: 14:50 - Osservazioni Meteo Genova-Sestri
Lat. 44° 25' N Lon. 8° 51' E Alt. 2 metri s.l.m.

sereno Europe/Rome

11 °C

Sereno

Temp. 24 Ore

8 °C

16 °C

Nord

3.7 Km/h

Dew point -1 °C

Umidità 43 %

Visibilità  10 Km

Il sole sorge alle ore 07:49

Il sole tramonta alle ore 16:46

Data e Ora Cielo e Fenomeni T °C DP °C Um. % Pres. hPa Vis. km Vento km/h
Oggi h: 14:50 sereno Sereno 11 -1 43 1012 10 N 3.7
Oggi h: 14:20 sereno Sereno 11 -1 43 1013 10 NE 14.8
Oggi h: 13:50 sereno Sereno 11 -1 43 1013 10 NE 13
Oggi h: 13:20 sereno Sereno 11 -1 43 1014 10 NE 14.8
Oggi h: 12:50 sereno Sereno 11 -2 40 1014 10 NE 18.5
Oggi h: 12:20 sereno Sereno 12 -2 37 1015 10 NE 11.1
Oggi h: 11:50 sereno Sereno 12 -2 37 1015 10 N 5.5
Oggi h: 11:20 sereno Sereno 11 -1 43 1016 10 E/NE 9.3
Oggi h: 10:50 sereno Sereno 11 -1 43 1016 10 N 5.5
Oggi h: 10:20 sereno Sereno 10 -2 42 1017 10 N 5.5
Oggi h: 09:50 sereno Sereno 10 -2 42 1017 10 E/NE 7.4
Oggi h: 09:20 sereno Sereno 9 -3 42 1017 10 E/NE 9.3
Oggi h: 08:50 sereno Sereno 8 -3 45 1017 10 N/NE 14.8
Oggi h: 08:20 sereno Sereno 8 -4 42 1017 10 N 5.5
Oggi h: 07:50 sereno Sereno 8 -3 45 1017 10 N/NE 11.1
Oggi h: 07:20 sereno Sereno 8 -4 42 1018 10 N 5.5
Oggi h: 06:50 sereno Sereno 8 -3 45 1018 10 NE 7.4
Oggi h: 06:20 sereno Sereno 9 -4 39 1018 10 E/NE 13
Oggi h: 05:50 sereno Sereno 9 -4 39 1018 10 NE 20.3
Oggi h: 05:20 sereno Sereno 9 -4 39 1018 10 NE 24
Oggi h: 04:50 sereno Sereno 9 -4 39 1018 10 N/NE 13
Oggi h: 04:20 sereno Sereno 9 -4 39 1019 10 N/NE 13
Oggi h: 03:50 sereno Sereno 9 -4 39 1019 10 N/NE 11.1
Oggi h: 03:20 sereno Sereno 9 -5 36 1019 10 N/NE 11.1
Oggi h: 02:20 sereno Sereno 10 -5 34 1020 10 NE 14.8
Oggi h: 01:50 sereno Sereno 10 -5 34 1020 10 NE 13
Oggi h: 01:20 sereno Sereno 10 -5 34 1021 10 NE 16.7
Oggi h: 00:50 sereno Sereno 10 -5 34 1021 10 NE 14.8
Oggi h: 00:20 sereno Sereno 10 -6 31 1021 10 NE 14.8
Ieri h: 23:50 sereno Sereno 11 -6 29 1021 10 NE 14.8
Ieri h: 23:20 sereno Sereno 10 -6 31 1021 10 N/NE 7.4
Ieri h: 22:50 sereno Sereno 11 -7 27 1021 10 NE 9.3
Ieri h: 22:20 sereno Sereno 11 -6 29 1021 10 NE 9.3
Ieri h: 21:50 sereno Sereno 11 -6 29 1021 10 NE 9.3
Ieri h: 21:20 sereno Sereno 11 -6 29 1021 10 NE 7.4
Ieri h: 20:50 sereno Sereno 11 -6 29 1020 10 NE 9.3
Ieri h: 20:20 sereno Sereno 11 -6 29 1020 10 NE 13
Ieri h: 19:50 sereno Sereno 11 -5 32 1020 10 NE 9.3
Ieri h: 19:20 sereno Sereno 11 -5 32 1020 10 N 5.5
Ieri h: 18:50 sereno Sereno 12 -6 27 1019 10 E/NE 13
Ieri h: 18:20 sereno Sereno 11 -5 32 1019 10 E/SE 9.3
Ieri h: 17:50 sereno Sereno 12 -7 25 1019 10 N 3.7
Ieri h: 17:20 sereno Sereno 13 -6 26 1018 10 N 9.3
Ieri h: 16:50 sereno Sereno 14 -6 24 1018 10 N 13
Ieri h: 16:20 sereno Sereno 14 -5 26 1018 10 N 13
Ieri h: 15:50 sereno Sereno 15 -5 24 1018 10 N/NO 16.7
Ieri h: 15:20 sereno Sereno 16 -4 24 1018 10 NO 11.1
Ieri h: 14:50 sereno Sereno 15 -3 28 1018 10 O/NO 13